Regional Weather Roundup
Issued by NWS

Home | Current Version | Previous Version | Graphics & Text | Print | Product List | Glossary On
Versions: 1 2 3 4 5 6 7 8 9 10 11 12 13 14 15 16 17 18 19 20 21 22 23 24 25 26 27 28 29 30 31 32 33 34 35 36 37 38 39 40 41 42 43 44 45 46 47 48 49 50
000
ASUS43 KLMK 220902
RWRKY
KENTUCKY REGIONAL WEATHER ROUNDUP
NATIONAL WEATHER SERVICE LOUISVILLE KY
500 AM EDT TUE JUL 22 2014

NOTE "FAIR" INDICATES FEW OR NO CLOUDS BELOW 12,000 FEET
WITH NO SIGNIFICANT WEATHER AND/OR OBSTRUCTIONS TO VISIBILITY.

KYZ001>023-026-027-061>063-070>075-221000-
WESTERN AND SOUTH CENTRAL KENTUCKY

CITY           SKY/WX    TMP DP  RH WIND       PRES   REMARKS
PADUCAH        CLEAR     67  63  87 CALM      30.06F FOG
HENDERSON        N/A     64  61  88 CALM      30.07R VSB 3/4
OWENSBORO      CLEAR     69  67  93 CALM      30.08R FOG
HOPKINSVILLE   CLEAR     68  68 100 NW1       30.07R
BOWLING GREEN  PTCLDY    72  68  87 CALM      30.07S
GLASGOW        CLEAR     70  70  99 CALM      30.08S
$$

KYZ024-025-028>034-038-045-046-053-221000-
NORTH CENTRAL KENTUCKY

CITY           SKY/WX    TMP DP  RH WIND       PRES   REMARKS
LOUISVILLE/SDF CLEAR     74  68  81 N6        30.07S
LOUISVILLE/LOU CLEAR     72  68  87 CALM      30.08S FOG
FORT KNOX      CLEAR     68  67  96 N2        30.07S
$$

KYZ035>037-039>044-047>052-055>060-089>105-221000-
NORTHEAST KENTUCKY

CITY           SKY/WX    TMP DP  RH WIND       PRES   REMARKS
LEXINGTON      CLEAR     73  67  81 E3        30.10R
COVINGTON      CLEAR     73  67  81 E3        30.09S
FRANKFORT      CLEAR     67  65  93 N3        30.08S FOG
$$

KYZ054-064>069-076>088-106>120-221000-
SOUTHEAST KENTUCKY

CITY           SKY/WX    TMP DP  RH WIND       PRES   REMARKS
JACKSON        PTCLDY    73  66  78 SE3       30.12S
LONDON         CLEAR     71  68  90 CALM      30.11S
SOMERSET       CLEAR     70  70 100 CALM      30.11R
MIDDLESBORO    CLEAR     69  67  95 CALM      30.13R
MONTICELLO     SUNNY     70  69  96 CALM      30.11S FOG
$$



USA.gov is the U.S. government's official web portal to all federal, state and local government web resources and services.